Location: Poughquag
(41.6090°N, 73.6820°W)
Time: 08:58:21
(UTC-05:00)

Altair - Pass Details

Date: 05 December 2023
Orbit: 1501 x 1682 km, 47.2° (Epoch: 02 March)

Event Time Altitude Azimuth Distance (km) Brightness Sun altitude
Rises 14:14:12 0° 297° (WNW) 4,695 10.2 17.3°
Reaches altitude 10° 14:17:19 10° 294° (WNW) 3,693 9.7 17.0°
Maximum altitude 14:26:21 60° 217° (SW) 1,683 8.6 15.9°
Drops below altitude 10° 14:35:16 10° 140° (SE) 3,647 9.7 14.9°
Sets 14:38:20 0° 137° (SE) 4,634 10.1 14.5°
